Das Wetter in  D-61279 Heinzenberg / Taunus





Wetter Minimum- & Maximum-Werte im Mai 2011

Standort: Heinzenberg / Taunus - Höhe 297 m         8 24' 1" Ost 50 21' 51" Nord
(   3-stündige Aktualisierung    letzte Aktualisierung um 19:04 am 31.05.2011  )


Messgrösse

Minimum

Maximum

Durchschnitt

Temperatur West /
Luftfeuchte West
Anklicken für Monats-Diagramm

-1,4 C

04:46
04.05.2011

20 %

16:39
08.05.2011

31,9 C

17:37
30.05.2011

97 %

22:28
31.05.2011

Temp

14,4 C

Feuchte

59 %

Temperatur Ost /
Luftfeuchte Ost
Anklicken für Monats-Diagramm

-1,1 C

04:51
04.05.2011

--

--
--

30,5 C

17:37
30.05.2011

--

--
--

14,1 C

--

Luftdruck Anklicken für Monats-Diagramm

1006,6 hPa

18:04
02.05.2011

1031,3 hPa

06:12
25.05.2011

1018,7 hPa

Taupunkt

-6,2 C

16:50
18.05.2011

18,2 C

13:44
22.05.2011

5,4 C

Windchill
( gefühlte Temperatur )

-4,1 C

05:55
03.05.2011

31,6 C

17:37
30.05.2011

12,7 C

Windgeschwindigkeit /
Windrichtung
Anklicken für Monats-Diagramm

---

51,0 km/h / W-SW

15:28
26.05.2011

9,3 km/h
W-SW

Helligkeit /
Sonnenschein
Anklicken für Monats-Diagramm
Anklicken für Monats-Diagramm

Sonnenschein:

247:39 Stunden

Max: 14:10 Std am
25.05.2011

113 klux

12:26
15.05.2011

38 klux

Solarstrahlung Anklicken für Monats-Diagramm

---

773 W/m

12:26
15.05.2011

279 W/m

Regenmenge
    Mai 2011
Anklicken für Monats-Diagramm

Insgesamt 20,1 l/m

in 18:01 Stunden
an 10 Tagen

9,0 l/m

12:49
22.05.2011

Gesamtmenge

20,1 l/m

Regen-Tage
    Mai 2011
Anklicken für Monats-Diagramm

>   0 mm/Tag

>   2 mm/Tag

>   5 mm/Tag

> 10 mm/Tag

> 20 mm/Tag

10 Tage     
3 Tage     
2 Tage     
0 Tage     
0 Tage     

Eisige Tage Mai 2011 / 2010

Tmin ≤ -10C     

0 Tage

/

0 Tage

Eistage Mai 2011 / 2010

Tmax <     0C     

0 Tage

/

0 Tage

Frosttage Mai 2011 / 2010

Tmin ≤     0C     

2 Tage

/

0 Tage

Kalte Tage Mai 2011 / 2010

Tmax <   10C     

0 Tage

/

5 Tage

Warme Tage Mai 2011 / 2010

Tmax ≥   20C     

23 Tage

/

6 Tage

Sommertage Mai 2011 / 2010

Tmax ≥   25C     

11 Tage

/

2 Tage

Heisse Tage Mai 2011 / 2010

Tmax ≥   30C     

  1 Tag

/

0 Tage


Monatsdiagramm Mai 2011

Die Kurven zeigen den Durchschnittswert des jeweiligen Tages an


Wetter-Monatsübersicht Mai 2011
Datum
  Temperatur
   Luftdruck
   Wind
  Regen
   Luftfeuchte
   Helligkeit

Sonnen-
schein


Temp.

Min.
Temp.

Max.
Temp.


Luftdruck

Min.
Luftdruck

Max.
Luftdruck

-Geschw.
Haupt-Richtg.

Max.
Wind

Menge /
Dauer


Feuchte

Min.
Feuchte

Max.
Feuchte


Helligkeit

Max.
Helligkeit

1.
Mai
12,6 C5,6 C
06:59
20,5 C
17:04
1010,2 hPa1008,4 hPa
17:04
1011,9 hPa
09:09
7,3 km/h
NO
28,6 km/h
15:39  
---
56 %27 %
17:34
88 %
00:54
43,8 klux80,5 klux
12:34
12:05 Std 
2.
Mai
9,6 C0,9 C
06:09
18,6 C
13:54
1009,7 hPa1006,6 hPa
18:04
1012,4 hPa
02:24
9,7 km/h
SO
33,9 km/h
12:19  
---
60 %34 %
13:39
86 %
07:04
41,0 klux94,1 klux
14:14
10:10 Std 
3.
Mai
8,5 C2,3 C
23:56
15,2 C
17:10
1014,2 hPa1010,1 hPa
00:00
1018,9 hPa
23:56
9,9 km/h
NO
24,1 km/h
11:35  
---
59 %32 %
17:10
78 %
03:15
37,2 klux109,0 klux
12:20
6:59 Std 
4.
Mai
7,1 C-1,4 C
04:46
16,9 C
17:56
1020,5 hPa1018,9 hPa
00:01
1023,6 hPa
23:57
4,9 km/h
W-NW
21,7 km/h
12:16  
---
59 %32 %
13:36
87 %
06:41
34 klux103 klux
12:46
5:30 Std 
5.
Mai
9,8 C-0,3 C
06:27
19,4 C
16:57
1024,0 hPa1021,9 hPa
16:57
1026,5 hPa
06:52
3,9 km/h
SO
20,5 km/h
15:57  
---
58 %26 %
17:27
90 %
07:57
44 klux85 klux
13:02
10:09 Std 
6.
Mai
13,3 C2,1 C
06:28
22,6 C
17:13
1021,6 hPa1018,6 hPa
18:53
1024,1 hPa
06:28
7,6 km/h
SO
26,1 km/h
11:28  
---
53 %23 %
15:03
86 %
06:58
40,1 klux83,1 klux
12:13
7:45 Std 
7.
Mai
17,2 C6,3 C
06:43
27,8 C
16:58
1019,6 hPa1016,9 hPa
17:18
1022,4 hPa
07:38
8,9 km/h
SO
31,2 km/h
16:28  
---
49 %22 %
17:08
83 %
07:43
43,4 klux80,7 klux
12:43
10:45 Std 
8.
Mai
17,5 C7,4 C
06:39
26,6 C
14:29
1020,3 hPa1019,0 hPa
14:29
1021,7 hPa
23:55
9,3 km/h
O-SO
31,3 km/h
09:49  
---
43 %20 %
16:39
73 %
07:49
43,1 klux81,2 klux
12:39
10:20 Std 
9.
Mai
18,7 C10,4 C
01:20
27,1 C
17:50
1023,3 hPa1021,7 hPa
00:00
1024,9 hPa
23:56
14,4 km/h
O-SO
39,0 km/h
03:55  
---
39 %20 %
13:05
67 %
01:30
44,9 klux85,4 klux
14:00
12:45 Std 
10.
Mai
17,4 C7,0 C
06:31
28,5 C
17:21
1024,4 hPa1022,0 hPa
17:31
1026,4 hPa
07:26
6,5 km/h
SO
33,0 km/h
22:06  
---
50 %22 %
17:26
74 %
06:36
40,3 klux94,8 klux
14:06
8:15 Std 
11.
Mai
17,9 C12,4 C
06:47
23,1 C
16:32
1021,7 hPa1018,6 hPa
19:17
1024,5 hPa
00:52
6,8 km/h
W
30,5 km/h
00:52  
---
62 %40 %
17:52
84 %
07:12
36,8 klux90,8 klux
13:52
6:45 Std 
12.
Mai
14,7 C9,3 C
05:38
22,1 C
13:33
1017,3 hPa1014,4 hPa
13:33
1020,9 hPa
23:54
10,0 km/h
NW
31,6 km/h
16:48  
---
65 %38 %
19:23
89 %
08:13
33,7 klux90,4 klux
13:48
5:00 Std 
13.
Mai
13,1 C4,2 C
06:09
21,3 C
18:29
1021,4 hPa1018,0 hPa
20:04
1024,7 hPa
07:34
4,4 km/h
SO
23,3 km/h
14:14  
---
57 %31 %
14:19
84 %
06:49
40,5 klux95,3 klux
14:14
9:06 Std 
14.
Mai
11,3 C4,4 C
06:15
20,1 C
13:35
1016,0 hPa1013,6 hPa
13:35
1019,1 hPa
00:25
9,4 km/h
W
36,0 km/h
15:35  
---
1:05 Stunden
65 %35 %
14:00
87 %
07:55
30,1 klux104,0 klux
13:00
5:50 Std 
15.
Mai
8,7 C3,1 C
04:51
16,1 C
17:16
1021,5 hPa1019,1 hPa
00:01
1024,3 hPa
23:12
8,2 km/h
W
43,6 km/h
15:01  
4,1 l/m
4:00 Stunden
78 %57 %
17:16
95 %
13:16
32 klux113 klux
12:26
5:25 Std 
16.
Mai
11,3 C7,6 C
03:32
14,7 C
15:22
1023,7 hPa1022,5 hPa
15:22
1025,5 hPa
03:32
17,5 km/h
W
43,4 km/h
16:02  
---
50 Minuten
77 %62 %
12:47
91 %
01:27
19 klux57 klux
10:47
5 Min 
17.
Mai
14,9 C10,4 C
23:54
23,9 C
18:03
1020,7 hPa1017,4 hPa
18:33
1022,9 hPa
02:13
12,5 km/h
W-SW
26,5 km/h
10:48  
---
1:10 Stunden
69 %34 %
18:58
84 %
04:08
27,5 klux98,9 klux
15:18
3:40 Std 
18.
Mai
10,9 C6,1 C
05:44
25,3 C
17:00
1018,2 hPa1014,0 hPa
17:00
1021,1 hPa
00:24
1,6 km/h
SO
20,4 km/h
17:15  
---
58 %35 %
18:05
91 %
06:19
39,6 klux58,0 klux
16:50
2:16 Std 
19.
Mai
17,1 C8,5 C
05:36
26,3 C
13:21
1015,9 hPa1014,1 hPa
17:26
1017,4 hPa
23:57
5,4 km/h
W-NW
24,0 km/h
13:26  
---
45 Minuten
64 %34 %
13:11
89 %
05:46
36,1 klux112,0 klux
13:06
5:29 Std 
20.
Mai
17,5 C11,2 C
07:27
25,9 C
16:27
1018,2 hPa1016,1 hPa
16:37
1019,3 hPa
23:53
6,7 km/h
W
32,6 km/h
17:17  
---
10 Minuten
69 %34 %
16:22
93 %
07:17
42 klux88 klux
12:17
8:25 Std 
21.
Mai
18,8 C11,1 C
06:53
28,3 C
16:53
1019,6 hPa1016,8 hPa
18:03
1022,6 hPa
08:43
4,8 km/h
W-SW
23,6 km/h
17:03  
---
64 %30 %
18:03
92 %
07:38
41,7 klux97,1 klux
13:33
10:15 Std 
22.
Mai
16,6 C10,6 C
06:04
24,2 C
11:59
1017,7 hPa1014,2 hPa
16:09
1023,8 hPa
23:55
9,1 km/h
W
47,2 km/h
12:44  
9,0 l/m
1:45 Stunden
73 %41 %
11:29
92 %
13:09
36,0 klux98,9 klux
13:19
7:40 Std 
23.
Mai
15,3 C5,8 C
06:05
25,5 C
18:35
1024,3 hPa1020,5 hPa
19:45
1027,7 hPa
07:10
8,0 km/h
W-SW
29,6 km/h
15:15  
---
57 %25 %
18:25
92 %
07:30
46,7 klux84,5 klux
13:35
13:45 Std 
24.
Mai
14,5 C8,9 C
23:57
19,9 C
16:11
1023,4 hPa1019,9 hPa
05:56
1029,4 hPa
23:57
12,2 km/h
NW
32,5 km/h
14:31  
---
57 %28 %
17:56
79 %
05:01
43,2 klux103,0 klux
13:06
11:25 Std 
25.
Mai
13,8 C2,7 C
06:12
24,6 C
17:17
1026,5 hPa1019,8 hPa
23:17
1031,3 hPa
06:12
4,8 km/h
SO
20,6 km/h
18:07  
---
47 %20 %
12:47
84 %
07:17
48 klux85 klux
13:02
14:10 Std 
26.
Mai
16,2 C7,6 C
06:23
24,8 C
16:33
1012,5 hPa1008,9 hPa
16:33
1020,1 hPa
00:27
19,0 km/h
W-SW
51,0 km/h
15:28  
0,2 l/m
45 Minuten
49 %34 %
11:03
68 %
14:08
36,7 klux107,0 klux
15:08
7:55 Std 
27.
Mai
13,1 C9,2 C
23:45
16,8 C
15:14
1015,0 hPa1012,5 hPa
04:44
1019,0 hPa
23:45
16,5 km/h
W-SW
39,8 km/h
08:29  
0,6 l/m
45 Minuten
61 %47 %
00:04
85 %
11:39
31 klux108 klux
13:04
4:10 Std 
28.
Mai
13,6 C5,5 C
05:35
20,9 C
18:10
1017,3 hPa1013,5 hPa
18:15
1020,5 hPa
05:35
11,2 km/h
W-SW
37,3 km/h
18:00  
---
61 %36 %
13:15
91 %
06:55
36 klux102 klux
13:35
5:50 Std 
29.
Mai
18,6 C12,4 C
05:56
27,1 C
17:56
1015,2 hPa1013,8 hPa
17:56
1017,3 hPa
23:47
18,5 km/h
W-SW
43,3 km/h
11:36  
---
49 %30 %
17:21
63 %
06:36
45 klux103 klux
12:51
12:10 Std 
30.
Mai
21,0 C9,6 C
06:37
31,9 C
17:37
1013,1 hPa1008,3 hPa
18:47
1017,3 hPa
00:12
10,2 km/h
W-SW
34,5 km/h
12:17  
---
48 %20 %
14:47
83 %
07:17
46 klux85 klux
13:27
12:55 Std 
31.
Mai
15,1 C10,4 C
23:33
20,8 C
10:37
1013,4 hPa1009,7 hPa
00:02
1022,0 hPa
23:38
9,5 km/h
W-NW
28,6 km/h
17:47  
6,2 l/m
6:46 Stunden
79 %55 %
00:02
97 %
22:28
15,8 klux89,5 klux
10:37
40 Min 



Mai
2011

Temperatur

  

Luftdruck

  

Wind

  

Regen

  

Luftfeuchte

  

Helligkeit

Sonnen-
schein

Min

Max

Min

Max

Max

Max

Min

Max

Max

Max

14,4 C

-1,4 C

04:46 Uhr
04.05.2011

31,9 C

17:37 Uhr
30.05.2011

1018,7 hPa

1006,6 hPa

18:04 Uhr
02.05.2011

1031,3 hPa

06:12 Uhr
25.05.2011

9,3 km/h

W-SW

51,0 km/h

15:28 Uhr
26.05.2011

9,0 l/m

1:45 Stunden
22.05.2011

59 %

20 %

16:39 Uhr
08.05.2011

97 %

22:28 Uhr
31.05.2011

37,9 klux

113,0 klux

12:26 Uhr
15.05.2011

14:10 Std

am
25.05.2011

Gesamt

Gesamt

20,1 l/m

10 Tage
18:01 h

247:39 Std


Wetter-Diagramme Mai 2011     Heinzenberg / Taunus   
TemperaturLuftfeuchte
SolarstrahlungLuftdruck
HelligkeitSonnenschein
RegenmengeRegendauer
Wind-GeschwindigkeitWind-Richtung